Time,TemperatureF,DewpointF,PressureIn,WindDirection,WindDirectionDegrees,WindSpeedMPH,WindSpeedGustMPH,Humidity,HourlyPrecipIn,Conditions,Clouds,dailyrainin,SolarRadiationWatts/m^2,SoftwareType,DateUTC
2013-02-14 00:00:00,29.0,28.0,-100.00,South,180,1.0,-999.0,94,-99.99,,,-99.99,0.000000,,2013-02-14 05:00:00,
2013-02-14 00:42:00,29.0,28.0,-100.00,South,180,1.0,-999.0,94,-99.99,,,-99.99,0.000000,,2013-02-14 05:42:00,
2013-02-14 00:52:00,29.0,28.0,-100.00,South,180,1.0,-999.0,94,-99.99,,,-99.99,0.000000,,2013-02-14 05:52:00,
2013-02-14 01:00:00,30.0,29.0,-100.00,South,180,0.0,-999.0,97,-99.99,,,-99.99,0.000000,,2013-02-14 06:00:00,
2013-02-14 01:42:00,30.0,29.0,-100.00,South,180,0.0,-999.0,97,-99.99,,,-99.99,0.000000,,2013-02-14 06:42:00,
2013-02-14 01:52:00,30.0,29.0,-100.00,South,180,0.0,-999.0,97,-99.99,,,-99.99,0.000000,,2013-02-14 06:52:00,
2013-02-14 02:00:00,32.0,31.0,-100.00,South,180,1.0,-999.0,96,-99.99,,,-99.99,0.000000,,2013-02-14 07:00:00,
2013-02-14 02:42:00,32.0,31.0,-100.00,South,180,1.0,-999.0,96,-99.99,,,-99.99,0.000000,,2013-02-14 07:42:00,
2013-02-14 02:52:00,32.0,31.0,-100.00,South,180,1.0,-999.0,96,-99.99,,,-99.99,0.000000,,2013-02-14 07:52:00,
2013-02-14 03:00:00,32.0,31.0,-100.00,South,180,3.0,-999.0,92,-99.99,,,-99.99,0.000000,,2013-02-14 08:00:00,
2013-02-14 03:43:00,32.0,31.0,-100.00,South,180,3.0,-999.0,92,-99.99,,,-99.99,0.000000,,2013-02-14 08:43:00,
2013-02-14 03:52:00,32.0,31.0,-100.00,South,180,3.0,-999.0,92,-99.99,,,-99.99,0.000000,,2013-02-14 08:52:00,
2013-02-14 04:00:00,31.0,30.0,-100.00,SSE,157,3.0,-999.0,94,-99.99,,,-99.99,0.000000,,2013-02-14 09:00:00,
2013-02-14 04:42:00,31.0,30.0,-100.00,SSE,157,3.0,-999.0,94,-99.99,,,-99.99,0.000000,,2013-02-14 09:42:00,
2013-02-14 04:52:00,31.0,30.0,-100.00,SSE,157,3.0,-999.0,94,-99.99,,,-99.99,0.000000,,2013-02-14 09:52:00,
2013-02-14 05:00:00,32.0,31.0,-100.00,SSE,157,5.0,-999.0,95,-99.99,,,-99.99,0.000000,,2013-02-14 10:00:00,
2013-02-14 05:42:00,32.0,31.0,-100.00,SSE,157,5.0,-999.0,95,-99.99,,,-99.99,0.000000,,2013-02-14 10:42:00,
2013-02-14 05:52:00,32.0,31.0,-100.00,SSE,157,5.0,-999.0,95,-99.99,,,-99.99,0.000000,,2013-02-14 10:52:00,
2013-02-14 06:00:00,33.0,32.0,-100.00,SSE,157,6.0,-999.0,92,-99.99,,,-99.99,0.000000,,2013-02-14 11:00:00,
2013-02-14 06:42:00,33.0,32.0,-100.00,SSE,157,6.0,-999.0,92,-99.99,,,-99.99,0.000000,,2013-02-14 11:42:00,
2013-02-14 06:52:00,33.0,32.0,-100.00,SSE,157,6.0,-999.0,92,-99.99,,,-99.99,0.000000,,2013-02-14 11:52:00,
2013-02-14 07:00:00,34.0,32.0,-100.00,SSE,157,7.0,-999.0,90,-99.99,,,-99.99,0.000000,,2013-02-14 12:00:00,
2013-02-14 07:42:00,34.0,32.0,-100.00,SSE,157,7.0,-999.0,90,-99.99,,,-99.99,0.000000,,2013-02-14 12:42:00,
2013-02-14 07:53:00,34.0,32.0,-100.00,SSE,157,7.0,-999.0,90,-99.99,,,-99.99,0.000000,,2013-02-14 12:53:00,
2013-02-14 09:00:00,36.0,31.0,-100.00,SSE,157,9.0,-999.0,82,-99.99,,,-99.99,48.720001,,2013-02-14 14:00:00,
2013-02-14 09:42:00,36.0,31.0,-100.00,SSE,157,9.0,-999.0,82,-99.99,,,-99.99,48.720001,,2013-02-14 14:42:00,
2013-02-14 09:52:00,36.0,31.0,-100.00,SSE,157,9.0,-999.0,82,-99.99,,,-99.99,48.720001,,2013-02-14 14:52:00,
2013-02-14 10:00:00,37.0,31.0,-100.00,South,180,10.0,-999.0,78,-99.99,,,-99.99,151.960007,,2013-02-14 15:00:00,
2013-02-14 10:42:00,37.0,31.0,-100.00,South,180,10.0,-999.0,78,-99.99,,,-99.99,151.960007,,2013-02-14 15:42:00,
2013-02-14 10:52:00,37.0,31.0,-100.00,South,180,10.0,-999.0,78,-99.99,,,-99.99,151.960007,,2013-02-14 15:52:00,
2013-02-14 11:00:00,38.0,32.0,-100.00,South,180,10.0,-999.0,79,-99.99,,,-99.99,235.479996,,2013-02-14 16:00:00,
2013-02-14 11:42:00,38.0,32.0,-100.00,South,180,10.0,-999.0,79,-99.99,,,-99.99,235.479996,,2013-02-14 16:42:00,
2013-02-14 11:52:00,38.0,32.0,-100.00,South,180,10.0,-999.0,79,-99.99,,,-99.99,235.479996,,2013-02-14 16:52:00,
2013-02-14 12:00:00,39.0,32.0,-100.00,SSW,202,11.0,-999.0,78,-99.99,,,-99.99,243.600006,,2013-02-14 17:00:00,
2013-02-14 12:42:00,39.0,32.0,-100.00,SSW,202,11.0,-999.0,78,-99.99,,,-99.99,243.600006,,2013-02-14 17:42:00,
2013-02-14 12:52:00,39.0,32.0,-100.00,SSW,202,11.0,-999.0,78,-99.99,,,-99.99,243.600006,,2013-02-14 17:52:00,
2013-02-14 13:00:00,38.0,32.0,-100.00,SW,225,13.0,-999.0,75,-99.99,,,-99.99,184.440002,,2013-02-14 18:00:00,
2013-02-14 13:42:00,38.0,32.0,-100.00,SW,225,13.0,-999.0,75,-99.99,,,-99.99,184.440002,,2013-02-14 18:42:00,
2013-02-14 13:52:00,38.0,32.0,-100.00,SW,225,13.0,-999.0,75,-99.99,,,-99.99,184.440002,,2013-02-14 18:52:00,
2013-02-14 14:00:00,37.0,32.0,-100.00,SW,225,14.0,-999.0,80,-99.99,,,-99.99,102.080002,,2013-02-14 19:00:00,
2013-02-14 14:42:00,37.0,32.0,-100.00,SW,225,14.0,-999.0,80,-99.99,,,-99.99,102.080002,,2013-02-14 19:42:00,
2013-02-14 14:52:00,37.0,32.0,-100.00,SW,225,14.0,-999.0,80,-99.99,,,-99.99,102.080002,,2013-02-14 19:52:00,
2013-02-14 15:00:00,36.0,32.0,-100.00,SW,225,12.0,-999.0,83,-99.99,,,-99.99,125.279999,,2013-02-14 20:00:00,
2013-02-14 15:42:00,36.0,32.0,-100.00,SW,225,12.0,-999.0,83,-99.99,,,-99.99,125.279999,,2013-02-14 20:42:00,
2013-02-14 15:52:00,36.0,32.0,-100.00,SW,225,12.0,-999.0,83,-99.99,,,-99.99,125.279999,,2013-02-14 20:52:00,
2013-02-14 16:00:00,37.0,31.0,-100.00,SW,225,12.0,-999.0,78,-99.99,,,-99.99,87.000000,,2013-02-14 21:00:00,
2013-02-14 16:42:00,37.0,31.0,-100.00,SW,225,12.0,-999.0,78,-99.99,,,-99.99,87.000000,,2013-02-14 21:42:00,
2013-02-14 16:52:00,37.0,31.0,-100.00,SW,225,12.0,-999.0,78,-99.99,,,-99.99,87.000000,,2013-02-14 21:52:00,
2013-02-14 17:00:00,36.0,31.0,-100.00,WSW,247,13.0,-999.0,82,-99.99,,,-99.99,19.719999,,2013-02-14 22:00:00,
2013-02-14 17:42:00,36.0,31.0,-100.00,WSW,247,13.0,-999.0,82,-99.99,,,-99.99,19.719999,,2013-02-14 22:42:00,
2013-02-14 17:52:00,36.0,31.0,-100.00,WSW,247,13.0,-999.0,82,-99.99,,,-99.99,19.719999,,2013-02-14 22:52:00,
2013-02-14 18:00:00,35.0,29.0,-100.00,West,270,16.0,-999.0,78,-99.99,,,-99.99,5.800000,,2013-02-14 23:00:00,
2013-02-14 18:42:00,35.0,29.0,-100.00,West,270,16.0,-999.0,78,-99.99,,,-99.99,5.800000,,2013-02-14 23:42:00,
2013-02-14 18:52:00,35.0,29.0,-100.00,West,270,16.0,-999.0,78,-99.99,,,-99.99,5.800000,,2013-02-14 23:52:00,
2013-02-14 19:00:00,34.0,29.0,-100.00,West,270,15.0,-999.0,79,-99.99,,,-99.99,0.000000,,2013-02-15 00:00:00,
2013-02-14 19:42:00,34.0,29.0,-100.00,West,270,15.0,-999.0,79,-99.99,,,-99.99,0.000000,,2013-02-15 00:42:00,
2013-02-14 19:52:00,34.0,29.0,-100.00,West,270,15.0,-999.0,79,-99.99,,,-99.99,0.000000,,2013-02-15 00:52:00,
2013-02-14 21:00:00,33.0,26.0,-100.00,West,270,15.0,-999.0,73,-99.99,,,-99.99,0.000000,,2013-02-15 02:00:00,
2013-02-14 21:32:00,33.0,26.0,-100.00,West,270,15.0,-999.0,73,-99.99,,,-99.99,0.000000,,2013-02-15 02:32:00,
2013-02-14 21:42:00,33.0,26.0,-100.00,West,270,15.0,-999.0,73,-99.99,,,-99.99,0.000000,,2013-02-15 02:42:00,
2013-02-14 21:52:00,33.0,26.0,-100.00,West,270,15.0,-999.0,73,-99.99,,,-99.99,0.000000,,2013-02-15 02:52:00,
2013-02-14 22:00:00,33.0,26.0,-100.00,West,270,14.0,-999.0,77,-99.99,,,-99.99,0.000000,,2013-02-15 03:00:00,
2013-02-14 22:42:00,33.0,26.0,-100.00,West,270,14.0,-999.0,77,-99.99,,,-99.99,0.000000,,2013-02-15 03:42:00,
2013-02-14 22:52:00,33.0,26.0,-100.00,West,270,14.0,-999.0,77,-99.99,,,-99.99,0.000000,,2013-02-15 03:52:00,
2013-02-14 23:00:00,32.0,27.0,-100.00,West,270,10.0,-999.0,80,-99.99,,,-99.99,0.000000,,2013-02-15 04:00:00,
2013-02-14 23:42:00,32.0,27.0,-100.00,West,270,10.0,-999.0,80,-99.99,,,-99.99,0.000000,,2013-02-15 04:42:00,
2013-02-14 23:52:00,32.0,27.0,-100.00,West,270,10.0,-999.0,80,-99.99,,,-99.99,0.000000,,2013-02-15 04:52:00,